Location: Praha
(50.0830°N, 14.4670°E)
Time: 13:12:27
(UTC+02:00)

ISS - Pass Details

Date: 07 July 2019
Orbit: 409 x 418 km, 51.6° (Epoch: 21 July)

Event Time Altitude Azimuth Distance (km) Brightness Sun altitude
Exits shadow 02:31:55 23° 154° (SSE) 916 -2.4 -14.9°
Maximum altitude 02:32:14 24° 144° (SE) 905 -2.4 -14.9°
Drops below altitude 10° 02:34:58 10° 89° (E) 1,478 -0.7 -14.7°
Sets 02:37:17 0° 75° (ENE) 2,342 0.6 -14.6°
